Time,TemperatureF,DewpointF,PressureIn,WindDirection,WindDirectionDegrees,WindSpeedMPH,WindSpeedGustMPH,Humidity,HourlyPrecipIn,Conditions,Clouds,dailyrainin,SoftwareType,DateUTC
2013-07-19 00:02:00,75.4,53.1,28.79,NNE,22,1.6,1.6,46,0.00,,,0.00,open2300-1.11,2013-07-18 21:02:00,
2013-07-19 00:07:00,75.4,53.1,28.79,NNE,22,2.2,2.2,46,0.00,,,0.00,open2300-1.11,2013-07-18 21:07:00,
2013-07-19 00:12:00,75.4,53.7,28.79,NE,45,0.0,2.2,47,0.00,,,0.00,open2300-1.11,2013-07-18 21:12:00,
2013-07-19 00:17:00,75.4,53.7,28.79,North,0,0.0,0.0,47,0.00,,,0.00,open2300-1.11,2013-07-18 21:17:00,
2013-07-19 00:22:00,75.2,53.6,28.79,NNE,22,0.0,2.7,47,0.00,,,0.00,open2300-1.11,2013-07-18 21:22:00,
2013-07-19 00:32:00,75.0,53.4,28.79,NNE,22,2.7,2.7,47,0.00,,,0.00,open2300-1.11,2013-07-18 21:32:00,
2013-07-19 00:37:00,75.0,53.4,28.79,NNE,22,4.7,4.7,47,0.00,,,0.00,open2300-1.11,2013-07-18 21:37:00,
2013-07-19 00:42:00,75.0,53.4,28.79,NNE,22,6.9,6.9,47,0.00,,,0.00,open2300-1.11,2013-07-18 21:42:00,
2013-07-19 00:52:00,74.8,53.2,28.79,NNE,22,1.3,1.3,47,0.00,,,0.00,open2300-1.11,2013-07-18 21:52:00,
2013-07-19 00:57:00,74.8,53.2,28.79,NE,45,1.1,1.6,47,0.00,,,0.00,open2300-1.11,2013-07-18 21:57:00,
2013-07-19 01:07:00,74.8,53.2,28.79,NNE,22,0.0,0.0,47,0.00,,,0.00,open2300-1.11,2013-07-18 22:07:00,
2013-07-19 01:12:00,74.7,53.0,28.78,NNE,22,0.0,6.3,47,0.00,,,0.00,open2300-1.11,2013-07-18 22:12:00,
2013-07-19 01:17:00,74.5,52.9,28.77,NNE,22,2.0,2.5,47,0.00,,,0.00,open2300-1.11,2013-07-18 22:17:00,
2013-07-19 01:27:00,74.5,53.5,28.78,NNE,22,0.0,1.8,48,0.00,,,0.00,open2300-1.11,2013-07-18 22:27:00,
2013-07-19 01:32:00,74.5,53.5,28.78,NNE,22,0.0,2.7,48,0.00,,,0.00,open2300-1.11,2013-07-18 22:32:00,
2013-07-19 01:42:00,74.3,53.3,28.78,NE,45,0.0,2.9,48,0.00,,,0.00,open2300-1.11,2013-07-18 22:42:00,
2013-07-19 01:47:00,74.3,53.3,28.78,NNE,22,0.0,0.0,48,0.00,,,0.00,open2300-1.11,2013-07-18 22:47:00,
2013-07-19 01:52:00,74.1,53.1,28.79,NNE,22,0.0,0.0,48,0.00,,,0.00,open2300-1.11,2013-07-18 22:52:00,
2013-07-19 02:02:00,74.1,53.1,28.79,NE,45,0.0,0.0,48,0.00,,,0.00,open2300-1.11,2013-07-18 23:02:00,
2013-07-19 02:07:00,74.1,53.1,28.78,North,0,0.0,0.0,48,0.00,,,0.00,open2300-1.11,2013-07-18 23:07:00,
2013-07-19 02:12:00,74.1,53.1,28.78,NNE,22,0.0,0.0,48,0.00,,,0.00,open2300-1.11,2013-07-18 23:12:00,
2013-07-19 02:17:00,74.1,53.1,28.78,NNE,22,0.9,0.9,48,0.00,,,0.00,open2300-1.11,2013-07-18 23:17:00,
2013-07-19 02:22:00,73.9,53.5,28.78,NNE,22,0.0,0.9,49,0.00,,,0.00,open2300-1.11,2013-07-18 23:22:00,
2013-07-19 02:29:00,73.9,53.5,28.78,NE,45,0.0,0.0,49,0.00,,,0.00,open2300-1.11,2013-07-18 23:29:00,
2013-07-19 02:37:00,73.9,53.5,28.77,NE,45,0.0,0.0,49,0.00,,,0.00,open2300-1.11,2013-07-18 23:37:00,
2013-07-19 02:42:00,73.9,53.5,28.77,NE,45,0.0,0.0,49,0.00,,,0.00,open2300-1.11,2013-07-18 23:42:00,
2013-07-19 02:47:00,73.8,53.3,28.77,NE,45,0.0,2.7,49,0.00,,,0.00,open2300-1.11,2013-07-18 23:47:00,
2013-07-19 02:57:00,73.8,53.3,28.77,NNE,22,0.0,0.0,49,0.00,,,0.00,open2300-1.11,2013-07-18 23:57:00,
2013-07-19 03:02:00,73.8,53.3,28.77,NE,45,0.0,0.0,49,0.00,,,0.00,open2300-1.11,2013-07-19 00:02:00,
2013-07-19 03:07:00,73.6,53.8,28.77,NNE,22,1.8,2.0,50,0.00,,,0.00,open2300-1.11,2013-07-19 00:07:00,
2013-07-19 03:12:00,73.6,53.8,28.76,NNE,22,0.0,6.3,50,0.00,,,0.00,open2300-1.11,2013-07-19 00:12:00,
2013-07-19 03:22:00,73.6,53.8,28.76,NNE,22,1.6,1.6,50,0.00,,,0.00,open2300-1.11,2013-07-19 00:22:00,
2013-07-19 03:32:00,73.6,53.8,28.77,NNE,22,0.0,0.0,50,0.00,,,0.00,open2300-1.11,2013-07-19 00:32:00,
2013-07-19 03:42:00,73.4,53.6,28.76,NNE,22,0.0,1.1,50,0.00,,,0.00,open2300-1.11,2013-07-19 00:42:00,
2013-07-19 03:52:00,73.4,53.6,28.76,NE,45,0.7,3.8,50,0.00,,,0.00,open2300-1.11,2013-07-19 00:52:00,
2013-07-19 03:57:00,73.4,53.6,28.76,NNE,22,7.2,7.2,50,0.00,,,0.00,open2300-1.11,2013-07-19 00:57:00,
2013-07-19 04:07:00,73.2,53.4,28.76,North,0,0.7,0.7,50,0.00,,,0.00,open2300-1.11,2013-07-19 01:07:00,
2013-07-19 04:12:00,73.2,53.4,28.76,NE,45,2.0,2.7,50,0.00,,,0.00,open2300-1.11,2013-07-19 01:12:00,
2013-07-19 04:18:00,73.2,53.4,28.75,NE,45,4.7,4.7,50,0.00,,,0.00,open2300-1.11,2013-07-19 01:18:00,
2013-07-19 04:27:00,73.2,53.4,28.75,North,0,4.0,4.0,50,0.00,,,0.00,open2300-1.11,2013-07-19 01:27:00,
2013-07-19 04:32:00,73.2,53.4,28.75,NE,45,0.9,4.0,50,0.00,,,0.00,open2300-1.11,2013-07-19 01:32:00,
2013-07-19 04:37:00,73.2,53.4,28.75,NE,45,1.8,2.5,50,0.00,,,0.00,open2300-1.11,2013-07-19 01:37:00,
2013-07-19 04:47:00,73.2,53.4,28.75,NE,45,2.7,2.7,50,0.00,,,0.00,open2300-1.11,2013-07-19 01:47:00,
2013-07-19 04:52:00,73.0,53.3,28.74,NNE,22,0.0,4.0,50,0.00,,,0.00,open2300-1.11,2013-07-19 01:52:00,
2013-07-19 04:57:00,73.0,53.3,28.74,NNE,22,3.1,3.1,50,0.00,,,0.00,open2300-1.11,2013-07-19 01:57:00,
2013-07-19 05:07:00,73.0,53.3,28.74,NNE,22,1.3,1.3,50,0.00,,,0.00,open2300-1.11,2013-07-19 02:07:00,
2013-07-19 05:17:00,73.0,53.3,28.74,NNE,22,1.1,4.9,50,0.00,,,0.00,open2300-1.11,2013-07-19 02:17:00,
2013-07-19 05:22:00,73.0,53.3,28.74,NNE,22,6.9,6.9,50,0.00,,,0.00,open2300-1.11,2013-07-19 02:22:00,
2013-07-19 05:34:00,73.0,53.3,28.74,NNE,22,1.3,3.8,50,0.00,,,0.00,open2300-1.11,2013-07-19 02:34:00,
2013-07-19 05:42:00,73.0,53.3,28.74,North,0,0.0,5.1,50,0.00,,,0.00,open2300-1.11,2013-07-19 02:42:00,
2013-07-19 05:52:00,73.0,53.3,28.74,NE,45,0.0,7.2,50,0.00,,,0.00,open2300-1.11,2013-07-19 02:52:00,
2013-07-19 06:02:00,72.9,53.1,28.74,NNE,22,1.3,2.5,50,0.00,,,0.00,open2300-1.11,2013-07-19 03:02:00,
2013-07-19 06:07:00,72.9,53.1,28.74,NNE,22,0.0,1.3,50,0.00,,,0.00,open2300-1.11,2013-07-19 03:07:00,
2013-07-19 06:17:00,72.9,52.5,28.75,NNE,22,1.8,1.8,49,0.00,,,0.00,open2300-1.11,2013-07-19 03:17:00,
2013-07-19 06:22:00,72.9,52.5,28.75,NNE,22,0.0,1.8,49,0.00,,,0.00,open2300-1.11,2013-07-19 03:22:00,
2013-07-19 06:27:00,72.7,52.4,28.75,NE,45,4.2,5.1,49,0.00,,,0.00,open2300-1.11,2013-07-19 03:27:00,
2013-07-19 06:37:00,72.7,51.8,28.75,NNE,22,6.9,6.9,48,0.00,,,0.00,open2300-1.11,2013-07-19 03:37:00,
2013-07-19 06:42:00,72.7,52.4,28.75,NE,45,0.0,6.9,49,0.00,,,0.00,open2300-1.11,2013-07-19 03:42:00,
2013-07-19 06:47:00,72.7,52.4,28.75,NNE,22,0.0,1.1,49,0.00,,,0.00,open2300-1.11,2013-07-19 03:47:00,
2013-07-19 06:57:00,72.7,52.4,28.75,NNE,22,0.0,4.2,49,0.00,,,0.00,open2300-1.11,2013-07-19 03:57:00,
2013-07-19 07:02:00,72.7,51.8,28.75,NE,45,6.7,6.7,48,0.00,,,0.00,open2300-1.11,2013-07-19 04:02:00,
2013-07-19 07:07:00,72.7,52.4,28.75,North,0,0.0,6.7,49,0.00,,,0.00,open2300-1.11,2013-07-19 04:07:00,
2013-07-19 07:12:00,72.7,52.4,28.76,NE,45,0.0,1.8,49,0.00,,,0.00,open2300-1.11,2013-07-19 04:12:00,
2013-07-19 07:18:00,72.7,52.4,28.76,NNE,22,1.1,1.1,49,0.00,,,0.00,open2300-1.11,2013-07-19 04:18:00,
2013-07-19 07:27:00,73.0,52.7,28.76,NNE,22,0.0,0.0,49,0.00,,,0.00,open2300-1.11,2013-07-19 04:27:00,
2013-07-19 07:32:00,73.0,52.7,28.76,NNE,22,3.4,3.4,49,0.00,,,0.00,open2300-1.11,2013-07-19 04:32:00,
2013-07-19 07:42:00,73.2,52.8,28.76,NE,45,0.0,4.2,49,0.00,,,0.00,open2300-1.11,2013-07-19 04:42:00,
2013-07-19 07:47:00,73.2,52.8,28.76,NNE,22,0.0,0.0,49,0.00,,,0.00,open2300-1.11,2013-07-19 04:47:00,
2013-07-19 07:52:00,73.2,52.8,28.76,NNE,22,0.0,0.0,49,0.00,,,0.00,open2300-1.11,2013-07-19 04:52:00,
2013-07-19 08:02:00,73.6,53.2,28.77,NNE,22,0.0,1.6,49,0.00,,,0.00,open2300-1.11,2013-07-19 05:02:00,
2013-07-19 08:07:00,73.6,53.2,28.76,NNE,22,0.0,0.0,49,0.00,,,0.00,open2300-1.11,2013-07-19 05:07:00,
2013-07-19 08:17:00,73.9,54.1,28.77,NNE,22,5.1,5.1,50,0.00,,,0.00,open2300-1.11,2013-07-19 05:17:00,
2013-07-19 08:22:00,73.9,54.1,28.76,NE,45,0.0,5.1,50,0.00,,,0.00,open2300-1.11,2013-07-19 05:22:00,
2013-07-19 08:32:00,74.3,55.0,28.76,NE,45,0.0,3.6,51,0.00,,,0.00,open2300-1.11,2013-07-19 05:32:00,
2013-07-19 08:37:00,74.5,55.2,28.76,NNE,22,0.0,3.8,51,0.00,,,0.00,open2300-1.11,2013-07-19 05:37:00,
2013-07-19 08:42:00,74.5,55.2,28.76,NNE,22,0.0,0.0,51,0.00,,,0.00,open2300-1.11,2013-07-19 05:42:00,
2013-07-19 08:52:00,74.8,55.0,28.76,NNE,22,3.6,6.0,50,0.00,,,0.00,open2300-1.11,2013-07-19 05:52:00,
2013-07-19 08:58:00,75.0,55.2,28.76,NE,45,2.5,4.2,50,0.00,,,0.00,open2300-1.11,2013-07-19 05:58:00,
2013-07-19 09:07:00,75.0,54.6,28.76,NE,45,4.7,4.7,49,0.00,,,0.00,open2300-1.11,2013-07-19 06:07:00,
2013-07-19 09:12:00,75.0,54.6,28.76,NNE,22,1.8,6.0,49,0.00,,,0.00,open2300-1.11,2013-07-19 06:12:00,
2013-07-19 09:22:00,75.4,55.0,28.77,NE,45,1.6,4.5,49,0.00,,,0.00,open2300-1.11,2013-07-19 06:22:00,
2013-07-19 09:27:00,75.6,55.1,28.77,NNE,22,1.8,1.8,49,0.00,,,0.00,open2300-1.11,2013-07-19 06:27:00,
2013-07-19 09:32:00,75.6,54.5,28.77,NE,45,0.0,1.8,48,0.00,,,0.00,open2300-1.11,2013-07-19 06:32:00,
2013-07-19 09:37:00,75.9,54.8,28.77,NE,45,0.0,0.0,48,0.00,,,0.00,open2300-1.11,2013-07-19 06:37:00,
2013-07-19 09:42:00,75.9,54.8,28.77,NE,45,2.0,5.4,48,0.00,,,0.00,open2300-1.11,2013-07-19 06:42:00,
2013-07-19 09:47:00,76.1,54.4,28.77,NE,45,3.4,3.8,47,0.00,,,0.00,open2300-1.11,2013-07-19 06:47:00,
2013-07-19 09:52:00,76.1,54.4,28.76,NE,45,1.6,3.4,47,0.00,,,0.00,open2300-1.11,2013-07-19 06:52:00,
2013-07-19 09:57:00,76.5,54.1,28.76,NNE,22,4.7,4.7,46,0.00,,,0.00,open2300-1.11,2013-07-19 06:57:00,
2013-07-19 10:04:00,76.6,53.6,28.76,NE,45,2.0,8.3,45,0.00,,,0.00,open2300-1.11,2013-07-19 07:04:00,
2013-07-19 10:12:00,76.8,53.2,28.76,SSE,157,5.6,5.6,44,0.00,,,0.00,open2300-1.11,2013-07-19 07:12:00,
2013-07-19 10:17:00,77.2,53.5,28.76,NE,45,2.0,5.6,44,0.00,,,0.00,open2300-1.11,2013-07-19 07:17:00,
2013-07-19 10:27:00,77.5,52.6,28.77,ENE,67,0.9,6.5,42,0.00,,,0.00,open2300-1.11,2013-07-19 07:27:00,
2013-07-19 10:32:00,77.5,52.0,28.77,NE,45,2.5,2.5,41,0.00,,,0.00,open2300-1.11,2013-07-19 07:32:00,
2013-07-19 10:37:00,77.7,52.2,28.77,NNE,22,3.6,3.6,41,0.00,,,0.00,open2300-1.11,2013-07-19 07:37:00,
2013-07-19 10:47:00,77.9,52.3,28.77,NE,45,2.7,7.2,41,0.00,,,0.00,open2300-1.11,2013-07-19 07:47:00,
2013-07-19 10:52:00,77.9,52.3,28.77,NNE,22,2.7,2.7,41,0.00,,,0.00,open2300-1.11,2013-07-19 07:52:00,
2013-07-19 11:02:00,78.4,52.8,28.77,NE,45,6.0,7.4,41,0.00,,,0.00,open2300-1.11,2013-07-19 08:02:00,
2013-07-19 11:07:00,78.4,52.8,28.77,NNE,22,0.0,6.0,41,0.00,,,0.00,open2300-1.11,2013-07-19 08:07:00,
2013-07-19 11:12:00,78.6,53.0,28.76,NNE,22,4.9,4.9,41,0.00,,,0.00,open2300-1.11,2013-07-19 08:12:00,
2013-07-19 11:22:00,78.8,53.1,28.77,ENE,67,4.9,4.9,41,0.00,,,0.00,open2300-1.11,2013-07-19 08:22:00,
2013-07-19 11:32:00,79.0,53.3,28.77,NE,45,0.0,6.9,41,0.00,,,0.00,open2300-1.11,2013-07-19 08:32:00,
2013-07-19 11:37:00,79.0,52.7,28.77,NNE,22,0.0,3.4,40,0.00,,,0.00,open2300-1.11,2013-07-19 08:37:00,
2013-07-19 11:43:00,79.0,52.7,28.77,NNE,22,6.9,6.9,40,0.00,,,0.00,open2300-1.11,2013-07-19 08:43:00,
2013-07-19 11:52:00,79.2,52.8,28.77,NNE,22,0.0,5.1,40,0.00,,,0.00,open2300-1.11,2013-07-19 08:52:00,
2013-07-19 11:57:00,79.3,53.0,28.77,NNE,22,2.9,2.9,40,0.00,,,0.00,open2300-1.11,2013-07-19 08:57:00,
2013-07-19 12:02:00,79.3,52.2,28.77,NNE,22,2.2,2.9,39,0.00,,,0.00,open2300-1.11,2013-07-19 09:02:00,
2013-07-19 12:07:00,79.3,52.2,28.77,NNE,22,4.5,4.5,39,0.00,,,0.00,open2300-1.11,2013-07-19 09:07:00,
2013-07-19 12:12:00,79.3,53.0,28.77,NE,45,1.8,4.5,40,0.00,,,0.00,open2300-1.11,2013-07-19 09:12:00,
2013-07-19 12:17:00,79.5,53.2,28.76,NNE,22,7.2,7.2,40,0.00,,,0.00,open2300-1.11,2013-07-19 09:17:00,
2013-07-19 12:27:00,79.5,53.2,28.77,NE,45,0.0,9.2,40,0.00,,,0.00,open2300-1.11,2013-07-19 09:27:00,
2013-07-19 12:32:00,79.7,53.3,28.77,NNE,22,4.9,4.9,40,0.00,,,0.00,open2300-1.11,2013-07-19 09:32:00,
2013-07-19 12:42:00,79.9,53.5,28.76,NE,45,3.1,5.4,40,0.00,,,0.00,open2300-1.11,2013-07-19 09:42:00,
2013-07-19 12:52:00,80.2,53.8,28.77,NNE,22,5.6,7.6,40,0.00,,,0.00,open2300-1.11,2013-07-19 09:52:00,
2013-07-19 13:02:00,80.2,53.0,28.77,North,0,3.4,7.6,39,0.00,,,0.00,open2300-1.11,2013-07-19 10:02:00,
2013-07-19 13:07:00,80.2,53.8,28.77,NNE,22,0.0,3.4,40,0.00,,,0.00,open2300-1.11,2013-07-19 10:07:00,
2013-07-19 13:17:00,80.4,53.2,28.76,NNE,22,0.0,5.4,39,0.00,,,0.00,open2300-1.11,2013-07-19 10:17:00,
2013-07-19 13:22:00,80.4,53.2,28.76,North,0,3.8,3.8,39,0.00,,,0.00,open2300-1.11,2013-07-19 10:22:00,
2013-07-19 13:27:00,80.8,53.5,28.76,North,0,4.2,4.2,39,0.00,,,0.00,open2300-1.11,2013-07-19 10:27:00,
2013-07-19 13:37:00,81.1,53.1,28.76,NE,45,0.0,0.0,38,0.00,,,0.00,open2300-1.11,2013-07-19 10:37:00,
2013-07-19 13:42:00,81.3,53.2,28.76,NNE,22,1.3,1.3,38,0.00,,,0.00,open2300-1.11,2013-07-19 10:42:00,
2013-07-19 13:52:00,81.5,53.4,28.76,NE,45,0.0,4.0,38,0.00,,,0.00,open2300-1.11,2013-07-19 10:52:00,
2013-07-19 13:57:00,81.5,52.6,28.76,North,0,3.8,6.3,37,0.00,,,0.00,open2300-1.11,2013-07-19 10:57:00,
2013-07-19 14:02:00,81.7,52.8,28.76,NE,45,3.8,3.8,37,0.00,,,0.00,open2300-1.11,2013-07-19 11:02:00,
2013-07-19 14:12:00,82.2,51.6,28.76,NE,45,0.9,7.8,35,0.00,,,0.00,open2300-1.11,2013-07-19 11:12:00,
2013-07-19 14:17:00,82.6,52.0,28.75,NNW,337,4.5,4.5,35,0.00,,,0.00,open2300-1.11,2013-07-19 11:17:00,
2013-07-19 14:22:00,82.6,52.0,28.75,NE,45,2.0,4.5,35,0.00,,,0.00,open2300-1.11,2013-07-19 11:22:00,
2013-07-19 14:27:00,82.9,52.3,28.75,NNE,22,0.0,2.0,35,0.00,,,0.00,open2300-1.11,2013-07-19 11:27:00,
2013-07-19 14:39:00,83.1,52.5,28.75,NNE,22,5.8,5.8,35,0.00,,,0.00,open2300-1.11,2013-07-19 11:39:00,
2013-07-19 14:47:00,83.5,52.8,28.75,NNE,22,0.0,1.3,35,0.00,,,0.00,open2300-1.11,2013-07-19 11:47:00,
2013-07-19 14:52:00,83.8,53.1,28.75,NNE,22,0.0,6.5,35,0.00,,,0.00,open2300-1.11,2013-07-19 11:52:00,
2013-07-19 14:57:00,84.2,53.4,28.75,NE,45,0.0,0.0,35,0.00,,,0.00,open2300-1.11,2013-07-19 11:57:00,
2013-07-19 15:07:00,84.9,53.3,28.75,NNE,22,5.1,5.1,34,0.00,,,0.00,open2300-1.11,2013-07-19 12:07:00,
2013-07-19 15:17:00,84.7,53.1,28.75,NE,45,1.1,2.0,34,0.00,,,0.00,open2300-1.11,2013-07-19 12:17:00,
2013-07-19 15:27:00,84.4,52.8,28.75,NNE,22,0.0,4.9,34,0.00,,,0.00,open2300-1.11,2013-07-19 12:27:00,
2013-07-19 15:32:00,84.4,52.8,28.74,NNE,22,0.0,4.0,34,0.00,,,0.00,open2300-1.11,2013-07-19 12:32:00,
2013-07-19 15:37:00,84.6,53.0,28.74,NNE,22,0.0,0.0,34,0.00,,,0.00,open2300-1.11,2013-07-19 12:37:00,
2013-07-19 15:42:00,84.6,53.0,28.74,NE,45,0.0,0.0,34,0.00,,,0.00,open2300-1.11,2013-07-19 12:42:00,
2013-07-19 15:47:00,84.7,53.1,28.74,NNE,22,2.7,2.7,34,0.00,,,0.00,open2300-1.11,2013-07-19 12:47:00,
2013-07-19 15:53:00,84.9,52.5,28.74,NE,45,0.0,2.7,33,0.00,,,0.00,open2300-1.11,2013-07-19 12:53:00,
2013-07-19 16:02:00,84.9,52.5,28.74,NNE,22,4.5,4.5,33,0.00,,,0.00,open2300-1.11,2013-07-19 13:02:00,
2013-07-19 16:12:00,85.1,52.7,28.74,NE,45,4.5,5.1,33,0.00,,,0.00,open2300-1.11,2013-07-19 13:12:00,
2013-07-19 16:17:00,85.3,52.8,28.73,NE,45,2.7,4.5,33,0.00,,,0.00,open2300-1.11,2013-07-19 13:17:00,
2013-07-19 16:22:00,85.6,53.1,28.73,NE,45,3.4,3.4,33,0.00,,,0.00,open2300-1.11,2013-07-19 13:22:00,
2013-07-19 16:28:00,85.8,53.3,28.73,NNE,22,1.8,6.5,33,0.00,,,0.00,open2300-1.11,2013-07-19 13:28:00,
2013-07-19 16:37:00,86.4,53.0,28.73,NE,45,0.0,2.2,32,0.00,,,0.00,open2300-1.11,2013-07-19 13:37:00,
2013-07-19 16:42:00,86.7,53.2,28.72,NNE,22,5.6,5.6,32,0.00,,,0.00,open2300-1.11,2013-07-19 13:42:00,
2013-07-19 16:47:00,87.1,53.5,28.73,NNE,22,4.0,5.6,32,0.00,,,0.00,open2300-1.11,2013-07-19 13:47:00,
2013-07-19 16:57:00,87.1,52.7,28.72,NNE,22,0.0,6.3,31,0.00,,,0.00,open2300-1.11,2013-07-19 13:57:00,
2013-07-19 17:02:00,87.4,53.0,28.72,NE,45,0.0,0.0,31,0.00,,,0.00,open2300-1.11,2013-07-19 14:02:00,
2013-07-19 17:07:00,87.6,53.2,28.72,NE,45,0.7,4.0,31,0.00,,,0.00,open2300-1.11,2013-07-19 14:07:00,
2013-07-19 17:17:00,88.2,53.6,28.72,NNE,22,0.0,2.9,31,0.00,,,0.00,open2300-1.11,2013-07-19 14:17:00,
2013-07-19 17:22:00,88.5,54.0,28.72,NNE,22,0.7,0.7,31,0.00,,,0.00,open2300-1.11,2013-07-19 14:22:00,
2013-07-19 17:27:00,88.5,53.2,28.72,NNE,22,0.0,6.9,30,0.00,,,0.00,open2300-1.11,2013-07-19 14:27:00,
2013-07-19 17:37:00,88.5,53.2,28.72,NE,45,0.0,1.8,30,0.00,,,0.00,open2300-1.11,2013-07-19 14:37:00,
2013-07-19 17:44:00,88.5,52.1,28.72,NE,45,0.2,0.2,29,0.00,,,0.00,open2300-1.11,2013-07-19 14:44:00,
2013-07-19 17:52:00,88.2,53.6,28.72,NE,45,6.3,6.3,31,0.00,,,0.00,open2300-1.11,2013-07-19 14:52:00,
2013-07-19 17:57:00,88.3,53.8,28.72,NE,45,3.4,6.3,31,0.00,,,0.00,open2300-1.11,2013-07-19 14:57:00,
2013-07-19 18:02:00,88.3,53.8,28.72,NNE,22,0.0,3.4,31,0.00,,,0.00,open2300-1.11,2013-07-19 15:02:00,
2013-07-19 18:12:00,88.3,51.9,28.72,NE,45,2.2,2.2,29,0.00,,,0.00,open2300-1.11,2013-07-19 15:12:00,
2013-07-19 18:17:00,88.2,53.6,28.72,NNE,22,0.2,2.2,31,0.00,,,0.00,open2300-1.11,2013-07-19 15:17:00,
2013-07-19 18:22:00,88.3,53.8,28.72,NNE,22,0.0,0.2,31,0.00,,,0.00,open2300-1.11,2013-07-19 15:22:00,
2013-07-19 18:32:00,88.0,52.7,28.72,NE,45,0.0,0.0,30,0.00,,,0.00,open2300-1.11,2013-07-19 15:32:00,
2013-07-19 18:37:00,87.6,53.2,28.71,NE,45,0.0,2.0,31,0.00,,,0.00,open2300-1.11,2013-07-19 15:37:00,
2013-07-19 18:42:00,87.6,53.2,28.72,NNE,22,4.7,4.7,31,0.00,,,0.00,open2300-1.11,2013-07-19 15:42:00,
2013-07-19 18:52:00,87.3,52.1,28.72,NE,45,5.4,5.4,30,0.00,,,0.00,open2300-1.11,2013-07-19 15:52:00,
2013-07-19 18:59:00,87.4,53.0,28.72,NE,45,0.0,5.4,31,0.00,,,0.00,open2300-1.11,2013-07-19 15:59:00,
2013-07-19 19:07:00,86.7,51.7,28.72,NNE,22,0.0,1.3,30,0.00,,,0.00,open2300-1.11,2013-07-19 16:07:00,
2013-07-19 19:12:00,86.7,51.7,28.72,NE,45,0.0,3.8,30,0.00,,,0.00,open2300-1.11,2013-07-19 16:12:00,
2013-07-19 19:17:00,86.5,51.5,28.72,North,0,0.0,0.0,30,0.00,,,0.00,open2300-1.11,2013-07-19 16:17:00,
2013-07-19 19:27:00,85.8,50.9,28.72,NNE,22,3.1,3.1,30,0.00,,,0.00,open2300-1.11,2013-07-19 16:27:00,
2013-07-19 19:32:00,85.8,50.9,28.72,NNE,22,5.8,5.8,30,0.00,,,0.00,open2300-1.11,2013-07-19 16:32:00,
2013-07-19 19:37:00,85.6,50.8,28.72,NE,45,0.0,5.8,30,0.00,,,0.00,open2300-1.11,2013-07-19 16:37:00,
2013-07-19 19:47:00,84.7,50.0,28.72,NNE,22,1.8,1.8,30,0.00,,,0.00,open2300-1.11,2013-07-19 16:47:00,
2013-07-19 19:52:00,84.0,49.3,28.72,NNE,22,0.0,4.7,30,0.00,,,0.00,open2300-1.11,2013-07-19 16:52:00,
2013-07-19 19:57:00,83.5,48.8,28.72,NNE,22,1.8,1.8,30,0.00,,,0.00,open2300-1.11,2013-07-19 16:57:00,
2013-07-19 20:07:00,82.2,47.7,28.72,NNE,22,3.1,3.6,30,0.00,,,0.00,open2300-1.11,2013-07-19 17:07:00,
2013-07-19 20:13:00,81.7,48.0,28.72,NNE,22,6.0,6.0,31,0.00,,,0.00,open2300-1.11,2013-07-19 17:13:00,
2013-07-19 20:22:00,81.1,48.4,28.72,NNE,22,7.6,7.6,32,0.00,,,0.00,open2300-1.11,2013-07-19 17:22:00,
2013-07-19 20:27:00,80.8,48.1,28.72,NNE,22,2.0,7.6,32,0.00,,,0.00,open2300-1.11,2013-07-19 17:27:00,
2013-07-19 20:32:00,80.4,47.8,28.72,NE,45,0.0,5.8,32,0.00,,,0.00,open2300-1.11,2013-07-19 17:32:00,
2013-07-19 20:42:00,79.9,48.8,28.72,NNE,22,6.3,6.3,34,0.00,,,0.00,open2300-1.11,2013-07-19 17:42:00,
2013-07-19 20:47:00,79.7,49.5,28.72,NNE,22,0.0,6.3,35,0.00,,,0.00,open2300-1.11,2013-07-19 17:47:00,
2013-07-19 20:52:00,79.5,49.3,28.71,NNE,22,3.1,3.1,35,0.00,,,0.00,open2300-1.11,2013-07-19 17:52:00,
2013-07-19 20:57:00,79.3,49.1,28.71,NNE,22,0.0,3.1,35,0.00,,,0.00,open2300-1.11,2013-07-19 17:57:00,
2013-07-19 21:02:00,79.2,49.8,28.71,NE,45,0.0,2.5,36,0.00,,,0.00,open2300-1.11,2013-07-19 18:02:00,
2013-07-19 21:07:00,79.0,49.6,28.71,NNE,22,0.0,0.0,36,0.00,,,0.00,open2300-1.11,2013-07-19 18:07:00,
2013-07-19 21:17:00,78.6,50.0,28.71,NE,45,0.0,1.3,37,0.00,,,0.00,open2300-1.11,2013-07-19 18:17:00,
2013-07-19 21:23:00,78.6,50.0,28.71,NE,45,0.0,0.0,37,0.00,,,0.00,open2300-1.11,2013-07-19 18:23:00,
2013-07-19 21:32:00,78.4,49.9,28.72,NNE,22,0.0,0.0,37,0.00,,,0.00,open2300-1.11,2013-07-19 18:32:00,
2013-07-19 21:37:00,78.1,49.6,28.72,NNE,22,0.0,0.0,37,0.00,,,0.00,open2300-1.11,2013-07-19 18:37:00,
2013-07-19 21:47:00,78.1,50.3,28.72,NNE,22,0.0,0.0,38,0.00,,,0.00,open2300-1.11,2013-07-19 18:47:00,
2013-07-19 21:52:00,77.9,50.2,28.72,North,0,0.0,0.0,38,0.00,,,0.00,open2300-1.11,2013-07-19 18:52:00,
2013-07-19 21:59:00,77.9,50.2,28.72,North,0,0.0,0.0,38,0.00,,,0.00,open2300-1.11,2013-07-19 18:59:00,
2013-07-19 22:07:00,77.7,50.0,28.72,NNE,22,0.0,0.0,38,0.00,,,0.00,open2300-1.11,2013-07-19 19:07:00,
2013-07-19 22:12:00,77.7,50.0,28.72,NNE,22,0.0,0.0,38,0.00,,,0.00,open2300-1.11,2013-07-19 19:12:00,
2013-07-19 22:17:00,77.5,49.9,28.72,NNE,22,0.0,0.0,38,0.00,,,0.00,open2300-1.11,2013-07-19 19:17:00,
2013-07-19 22:27:00,77.5,49.9,28.72,NNE,22,0.0,1.1,38,0.00,,,0.00,open2300-1.11,2013-07-19 19:27:00,
2013-07-19 22:32:00,77.4,50.5,28.72,NNE,22,0.0,0.0,39,0.00,,,0.00,open2300-1.11,2013-07-19 19:32:00,
2013-07-19 22:42:00,77.2,50.3,28.73,NNE,22,0.0,0.0,39,0.00,,,0.00,open2300-1.11,2013-07-19 19:42:00,
2013-07-19 22:47:00,77.0,50.1,28.73,NNE,22,0.0,0.0,39,0.00,,,0.00,open2300-1.11,2013-07-19 19:47:00,
2013-07-19 22:52:00,76.8,50.7,28.72,NE,45,0.0,0.0,40,0.00,,,0.00,open2300-1.11,2013-07-19 19:52:00,
2013-07-19 23:02:00,76.8,50.7,28.72,NE,45,0.0,0.0,40,0.00,,,0.00,open2300-1.11,2013-07-19 20:02:00,
2013-07-19 23:09:00,76.8,51.3,28.72,NNE,22,0.0,0.0,41,0.00,,,0.00,open2300-1.11,2013-07-19 20:09:00,
2013-07-19 23:17:00,76.6,51.2,28.72,NNE,22,0.0,0.0,41,0.00,,,0.00,open2300-1.11,2013-07-19 20:17:00,
2013-07-19 23:22:00,76.6,51.2,28.72,NNE,22,0.0,0.0,41,0.00,,,0.00,open2300-1.11,2013-07-19 20:22:00,
2013-07-19 23:27:00,76.6,51.2,28.72,NNE,22,0.0,0.0,41,0.00,,,0.00,open2300-1.11,2013-07-19 20:27:00,
2013-07-19 23:37:00,76.6,51.2,28.72,NNE,22,0.0,0.0,41,0.00,,,0.00,open2300-1.11,2013-07-19 20:37:00,
2013-07-19 23:42:00,76.5,51.6,28.72,NNE,22,0.0,0.0,42,0.00,,,0.00,open2300-1.11,2013-07-19 20:42:00,
2013-07-19 23:52:00,76.5,52.9,28.72,NNE,22,0.0,0.0,44,0.00,,,0.00,open2300-1.11,2013-07-19 20:52:00,
2013-07-19 23:57:00,76.3,52.7,28.72,NNE,22,0.0,0.0,44,0.00,,,0.00,open2300-1.11,2013-07-19 20:57:00,